This is the latest recevied weather packets stored in our database for station/object PY2UEP-1. If no packets are shown the sender has not sent any weather packets the latest 10 day(s).
| Time | Temp. | Humidity | Pressure | Rain* | Wind** | Luminosity | Snow |
|---|---|---|---|---|---|---|---|
| 1787975403 | 24.44° C | 62% | 1014 hPa | 0 mm | - | - | - |
| 1787975103 | 24.44° C | 61% | 1014 hPa | 0 mm | - | - | - |
| 1787974803 | 24.44° C | 60% | 1014 hPa | 0 mm | - | - | - |
| 1787974503 | 24.44° C | 61% | 1014 hPa | 0 mm | - | - | - |
| 1787974203 | 23.89° C | 65% | 1013.9 hPa | 0 mm | - | - | - |
| 1787973903 | 23.89° C | 68% | 1014 hPa | 0 mm | - | - | - |
| 1787973603 | 23.33° C | 66% | 1014 hPa | 0 mm | - | - | - |
| 1787973303 | 23.33° C | 68% | 1013.9 hPa | 0 mm | - | - | - |
| 1787973002 | 23.33° C | 68% | 1014 hPa | 0 mm | - | - | - |
| 1787972702 | 23.33° C | 69% | 1013.9 hPa | 0 mm | - | - | - |
| 1787972402 | 23.33° C | 68% | 1013.9 hPa | 0 mm | - | - | - |
| 1787972102 | 23.89° C | 67% | 1013.8 hPa | 0 mm | - | - | - |
| 1787971803 | 23.89° C | 66% | 1013.8 hPa | 0 mm | - | - | - |
| 1787971503 | 23.89° C | 64% | 1013.8 hPa | 0 mm | - | - | - |
| 1787971202 | 23.89° C | 66% | 1013.8 hPa | 0 mm | - | - | - |
| 1787970903 | 23.89° C | 68% | 1013.7 hPa | 0 mm | - | - | - |
| 1787970602 | 23.89° C | 68% | 1013.7 hPa | 0 mm | - | - | - |
| 1787970302 | 23.89° C | 67% | 1013.7 hPa | 0 mm | - | - | - |
| 1787970002 | 23.89° C | 66% | 1013.7 hPa | 0 mm | - | - | - |
| 1787969703 | 23.89° C | 67% | 1013.5 hPa | 0 mm | - | - | - |
| 1787969402 | 23.89° C | 67% | 1013.5 hPa | 0 mm | - | - | - |
| 1787969102 | 24.44° C | 66% | 1013.5 hPa | 0 mm | - | - | - |
| 1787968802 | 24.44° C | 63% | 1013.7 hPa | 0 mm | - | - | - |
| 1787968502 | 24.44° C | 62% | 1013.7 hPa | 0 mm | - | - | - |
| 1787968202 | 24.44° C | 62% | 1013.5 hPa | 0 mm | - | - | - |
* Rain since midnight (hover to see other rain measurements)
** Current wind speed in m/s (hover to see current wind gust speed)